Regional Weather Roundup
Issued by NWS Newport/Morehead, NC

Current Version | Previous Version | Text Only | Print | Product List | Glossary On
Versions: 1 2 3 4 5 6 7 8 9 10 11 12 13 14 15 16 17 18 19 20 21 22 23 24 25 26 27 28 29 30 31 32 33 34 35 36 37 38 39 40 41 42 43 44 45 46 47 48 49 50
000
ASUS42 KMHX 230813
RWRMHX
WEATHER ROUNDUP FOR EASTERN NORTH CAROLINA
NATIONAL WEATHER SERVICE NEWPORT/MOREHEAD CITY NC
400 AM EDT FRI JUN 23 2017

NOTE: "FAIR" INDICATES FEW OR NO CLOUDS BELOW 12,000 FEET
WITH NO SIGNIFICANT WEATHER AND/OR OBSTRUCTIONS TO VISIBILITY

NCZ015>017-031-032-045>047-102-103-230900-
NORTH COAST

CITY           SKY/WX    TMP DP  RH WIND       PRES   REMARKS
EDENTON        CLOUDY    79  73  81 CALM      30.01F
ELIZABETH CITY CLOUDY    77  73  87 SW10      30.00S
KITTY HAWK     CLOUDY    78  72  80 SW5       29.99F
MANTEO         CLOUDY    77  72  84 W9        30.01F

$$

NCZ045>047-081-094-103-104-230900-
CENTRAL COAST

CITY           SKY/WX    TMP DP  RH WIND       PRES   REMARKS
FRISCO         CLOUDY    80  75  84 W7        30.02F

$$

NCZ095-097-098-100-101-230900-
SOUTHERN COAST

CITY           SKY/WX    TMP DP  RH WIND       PRES   REMARKS
BEAUFORT       CLOUDY    80  79  96 SW10      30.02F
CEDAR ISLAND   NOT AVBL
JACKSONVILLE   CLOUDY    76  76 100 SW3       30.02F
PINEY ISLAND   CLOUDY   N/A N/A N/A SW6       30.02F
WILMINGTON     PTCLDY    78  76  93 SW7       30.03F


$$

NCZ011>013-027>030-043-044-078>080-089-090>093-098-230900-
COASTAL PLAIN

CITY           SKY/WX    TMP DP  RH WIND       PRES   REMARKS
AHOSKIE          N/A     72  71  96 CALM      30.00F
CLINTON        CLOUDY    76  76 100 CALM      30.03F FOG
ELIZABETHTOWN  NOT AVBL
GOLDSBORO      CLOUDY    76  76 100 SW8       30.00F
GREENVILLE     MOCLDY    75  73  94 CALM      30.03F
HAVELOCK       CLOUDY    78  75  90 SW7       30.03F
KENANSVILLE    MOCLDY    75  75 100 SW3       30.03F FOG
KINSTON        LGT RAIN  76  75  96 SW7       30.03S
NEW BERN       CLOUDY    76  76 100 SW3       30.03F FOG
RICHLANDS      CLOUDY    76  76 100 SW6       30.03F
ROCKY MOUNT    LGT RAIN  74  74 100 S6        30.00F
WASHINGTON     CLOUDY    74  73  96 SW5       30.02F
WHITEVILLE     CLOUDY    78  76  94 S5        30.03F

$$

AMZ130-135-150-152-154-156-158-170-250-252-270-ANZ085-086-088-633-658-670-230900-
MARINE OBSERVATIONS

STATION/POSITION TIME  TEMP    WIND        PRES    WAVE   SWELL
                       AIR SEA DIR/SP/G            HT/PER HT/PER
                 (UTC) (F)     (DEG/KT/KT) (MB)    (FT/S) (FT/S)
CHESAPEAKE LIGHT NOT AVBL
64 E VA BEACH    0750   74 71  230/ 10/ 14 1015.5    2/ 9   2/ 9
DUCK             0748   79 64  240/ 15/ 17 1015.3
2 E DUCK         NOT AVBL
OREGON INLET     0742   78 78  230/ 14/ 17 1016.0
13E OREGON INLT  0748      71                N/A     3/ 8   2/ 8
HATTERAS CG      0748   78 78  250/  8/ 12 1016.5
DIAMOND BUOY     0750   80 80  260/ 12/ 14 1016.8    3/ 8   2/ 8
CAPE LOOKOUT     0800   79     230/  8/ 11 1016.5
BEAUFORT LAB     0748   79 78  230/  4/  8 1016.2
30 SE NEW RVR IN 0708   79 80  230/ 14/ 17 1017.2
30 SE NEW RVR IN 0743      80                N/A     3/ 8
27 SE WRIGHTSVLE 0708   79 80  230/ 12/ 16 1016.5
5 SE WRIGHTSVLE  NOT AVBL
225 S CAPE HAT   0750   80 82  210/ 12/ 14 1018.7    4/ 8   3/ 8
41 SE CHARLESTON 0750   81 81  200/ 16/ 17 1017.0    4/ 8   2/ 8

$$




USA.gov is the U.S. government's official web portal to all federal, state and local government web resources and services.